Content
SEND FEEDBACK

Daily
Averages
Monthly
Summary
United States of America

STATEN ISLAND, NEW YORK


Home > North America > United States > New York
Elevation: 46 meters     Latitude: 40 35N     Longitude: 074 09W

WEATHER
 
SELECT A DAY
Number of Records: 189,888;   Date Range: 1/1/95 - 9/18/14
 
SHARE

PRINT THIS DATA

[ ← Previous Day ]
WEATHER ALMANAC - 7 JANUARY, 2013
[ Next Day → ]
[ °F ]   °C
Weather ElementAverageHighLow
Temperature4.6 °C8.3 °C (12:51 pm)0 °C (11:51 pm)
Dewpoint-4.6 °C-1.7 °C (7:51 am)-7.8 °C (3:51 pm)
Humidity53.6 %73 % (4:51 am)34 % (2:51 pm)
Barometer1026.1 hPa1029.5 hPa (6:51 pm)1019 hPa (1:51 am)
Wind Speed11.7 km/h24.1 km/h (10:51 am)
Wind Gust38.9 km/h (12:51 pm)
Weather ElementAverage
Visibility16.1 km
Wind DirectionWSW (250.9 °)

Weather ElementTotal
Precipitation---
Heating Degree Days14.2 (Base 18.3)
Averaged from 23 records on 7 January, 2013
WEATHER CONDITIONS BREAKOUT
WIND DIRECTION BREAKOUT
WEATHER BY HOUR - 7 JANUARY, 2013
[ °F ]   °C
Local TimeTemperatureDewpointHumidityBarometerVisibilityWind DirectionWind SpeedGust SpeedPrecipitationEventsConditions
1:51 AM3.3 °C-2.8 °C65 %1019 hPa16.1 kmWest (270°)13 km/hPartly Cloudy
2:51 AM2.2 °C-2.8 °C70 %1019.3 hPa16.1 kmWest (280°)11.1 km/hPartly Cloudy
3:51 AM2.8 °C-2.2 °C70 %1020 hPa16.1 kmWest (260°)11.1 km/hPartly Cloudy
4:51 AM2.2 °C-2.2 °C73 %1020.7 hPa16.1 kmWest (280°)14.8 km/hOvercast
5:51 AM1.7 °C-2.8 °C72 %1021.7 hPa16.1 kmWNW (290°)7.4 km/hScattered Clouds
6:51 AM2.2 °C-2.2 °C73 %1023.4 hPa16.1 kmWest (270°)11.1 km/hPartly Cloudy
7:51 AM3.3 °C-1.7 °C70 %1024.4 hPa16.1 kmWSW (250°)13 km/hScattered Clouds
8:51 AM4.4 °C-1.7 °C65 %1025.1 hPa16.1 kmWest (280°)9.3 km/hScattered Clouds
9:51 AM6.7 °C-2.8 °C51 %1026.1 hPa16.1 kmWNW (300°)22.2 km/h37 km/hScattered Clouds
10:51 AM7 °C-4 °C46 %1026.8 hPa16.1 kmNW (320°)24.1 km/h35.2 km/hPartly Cloudy
11:51 AM7.8 °C-5 °C40 %1026.8 hPa16.1 kmWNW (300°)18.5 km/h33.3 km/hPartly Cloudy
12:51 PM8.3 °C-5.6 °C37 %1027.1 hPa16.1 kmWNW (300°)24.1 km/h38.9 km/hPartly Cloudy
1:51 PM7.8 °C-6.7 °C35 %1027.1 hPa16.1 kmNorth (360°)18.5 km/hPartly Cloudy
2:51 PM8.3 °C-6.7 °C34 %1027.8 hPa16.1 kmWNW (290°)18.5 km/h33.3 km/hPartly Cloudy
3:51 PM7.2 °C-7.8 °C34 %1028.4 hPa16.1 kmNW (320°)13 km/hPartly Cloudy
4:51 PM6.1 °C-7.8 °C37 %1028.8 hPa16.1 kmNNW (330°)11.1 km/hPartly Cloudy
5:51 PM5.6 °C-7.8 °C38 %1029.1 hPa16.1 kmNW (320°)5.6 km/hClear
6:51 PM5 °C-7.2 °C41 %1029.5 hPa16.1 kmNW (310°)7.4 km/hClear
7:51 PM4.4 °C-6.1 °C47 %1029.5 hPa16.1 kmCalmClear
8:51 PM4.4 °C-6.1 °C47 %1029.1 hPa16.1 kmCalmClear
9:51 PM2.8 °C-4.4 °C59 %1029.1 hPa16.1 kmCalmClear
10:51 PM2.2 °C-5 °C59 %1029.5 hPa16.1 kmSW (230°)5.6 km/hClear
11:51 PM0 °C-5 °C69 %1029.5 hPa16.1 kmSSW (210°)11.1 km/hClear
Hourly data recorded from KEWR, located 0 kilometers away from Staten Island, New York







STORIES FROM OUR PARTNERS